Retour au catalogue

THORAD DELTA 1 DEB

ActifSSO
NORAD 8139·DEBRIS·🇺🇸 United States

Lancé Nov 15, 1974 depuis Vandenberg Space Force Base

Loading…

Prochains Passages (prochaines 24 heures)

TLE

FraisSource: Space-Track

Époque: Sep 14, 2026, 08:37 UTC

1 08139U 74089H   26257.35916508 -.00000029  00000-0  91949-4 0  9996
2 08139 101.6276 221.3336 0049663 197.6773 319.9351 12.61955396386357

Suivez THORAD DELTA 1 DEB en temps réel avec AllMySat

Download on the App Store